Location: Lane
(33.5226°N, 79.8788°W)
Time: 01:58:53
(UTC+00:00)

Vanguard 1 Rocket - Pass Details

Date: 03 October 2022
Orbit: 650 x 4225 km, 34.3° (Epoch: 06 December)

Event Time Altitude Azimuth Distance (km) Brightness Sun altitude
Rises 00:11:37 0° 236° (WSW) 8,439 13.2 -15.2°
Reaches altitude 10° 00:17:49 10° 235° (SW) 7,260 12.7 -16.5°
Maximum altitude 00:40:54 69° 158° (SSE) 3,011 9.8 -21.3°
Enters shadow 00:49:11 30° 85° (E) 3,387 9.7 -23.0°
